• In Czech Republic
  • List of Countries
  • For 7 days
  • Water Temperature
  • Satellite Maps
  • Weather Map
  • Weather Widgets
  • user-avatar
    Login

    Hourly Weather San Martin Xaltocan

    Today, 21 January, Sunday

    Time Temperature Precipitation Wind Pressure Humidity
    00:00 +10°C° 0 mm 1 mps 567 mmHg 62%
    01:00 +10°C° 0 mm 1 mps 567 mmHg 63%
    02:00 +9°C° 0 mm 1 mps 567 mmHg 64%
    03:00 +9°C° 0 mm 1 mps 566 mmHg 66%
    04:00 +9°C° 0 mm 1 mps 566 mmHg 68%
    05:00 +9°C° 0 mm 1 mps 566 mmHg 70%
    06:00 +10°C° 0 mm 1 mps 567 mmHg 65%
    07:00 +12°C° 0 mm 1 mps 568 mmHg 59%
    08:00 +13°C° 0 mm 1 mps 569 mmHg 54%
    09:00 +15°C° 0 mm 1 mps 569 mmHg 47%
    10:00 +18°C° 0 mm 1 mps 570 mmHg 41%
    11:00 +19°C° 0 mm 2 mps 571 mmHg 34%
    12:00 +20°C° 0 mm 2 mps 570 mmHg 32%
    13:00 +20°C° 0 mm 2 mps 570 mmHg 31%
    14:00 +21°C° 0 mm 3 mps 570 mmHg 29%
    15:00 +20°C° 0 mm 2 mps 569 mmHg 34%
    16:00 +18°C° 0 mm 2 mps 568 mmHg 39%
    17:00 +17°C° 0 mm 2 mps 568 mmHg 44%
    18:00 +16°C° 0 mm 2 mps 568 mmHg 49%
    19:00 +14°C° 0 mm 1 mps 567 mmHg 53%
    20:00 +13°C° 0 mm 1 mps 567 mmHg 58%
    21:00 +13°C° 0 mm 1 mps 567 mmHg 59%
    22:00 +12°C° 0 mm 1 mps 567 mmHg 59%
    23:00 +12°C° 0 mm 1 mps 567 mmHg 60%

    Tomorrow, 22 January, Monday

    Time Temperature Precipitation Wind Pressure Humidity
    00:00 +11°C° 0 mm 1 mps 567 mmHg 61%
    01:00 +11°C° 0 mm 1 mps 567 mmHg 62%
    02:00 +11°C° 0 mm 1 mps 566 mmHg 63%
    03:00 +11°C° 0 mm 1 mps 566 mmHg 64%
    04:00 +10°C° 0 mm 1 mps 566 mmHg 65%
    05:00 +10°C° 0 mm 1 mps 566 mmHg 66%
    06:00 +11°C° 0 mm 1 mps 567 mmHg 61%
    07:00 +13°C° 0 mm 1 mps 568 mmHg 57%
    08:00 +14°C° 0 mm 1 mps 569 mmHg 52%
    09:00 +16°C° 0 mm 1 mps 570 mmHg 46%
    10:00 +18°C° 0 mm 2 mps 571 mmHg 41%
    11:00 +20°C° 0 mm 2 mps 572 mmHg 35%
    12:00 +20°C° 0 mm 3 mps 571 mmHg 36%
    13:00 +20°C° 0 mm 3 mps 570 mmHg 37%
    14:00 +20°C° 0 mm 3 mps 570 mmHg 38%
    15:00 +19°C° 0.1 mm 3 mps 569 mmHg 45%
    16:00 +18°C° 0.1 mm 3 mps 569 mmHg 52%
    17:00 +16°C° 0.1 mm 3 mps 569 mmHg 59%
    18:00 +14°C° 0.1 mm 3 mps 569 mmHg 66%
    19:00 +13°C° 0.1 mm 3 mps 569 mmHg 72%
    20:00 +12°C° 0.1 mm 3 mps 569 mmHg 78%
    21:00 +12°C° 0 mm 3 mps 569 mmHg 81%
    22:00 +11°C° 0 mm 3 mps 569 mmHg 83%
    23:00 +11°C° 0 mm 3 mps 569 mmHg 86%

    Day after tomorrow, 23 January, Tuesday

    Time Temperature Precipitation Wind Pressure Humidity
    00:00 +10°C° 0 mm 3 mps 569 mmHg 85%
    01:00 +10°C° 0 mm 3 mps 568 mmHg 85%
    02:00 +10°C° 0 mm 3 mps 568 mmHg 85%
    03:00 +10°C° 0 mm 3 mps 568 mmHg 86%
    04:00 +9°C° 0 mm 2 mps 568 mmHg 88%
    05:00 +9°C° 0 mm 2 mps 568 mmHg 89%
    06:00 +10°C° 0 mm 2 mps 568 mmHg 85%
    07:00 +10°C° 0 mm 2 mps 569 mmHg 80%
    08:00 +12°C° 0 mm 2 mps 570 mmHg 76%
    09:00 +13°C° 0 mm 3 mps 570 mmHg 67%
    10:00 +14°C° 0 mm 3 mps 571 mmHg 58%
    11:00 +17°C° 0 mm 3 mps 572 mmHg 49%
    12:00 +17°C° 0 mm 3 mps 571 mmHg 47%
    13:00 +18°C° 0 mm 3 mps 571 mmHg 46%
    14:00 +19°C° 0 mm 3 mps 570 mmHg 45%
    15:00 +18°C° 0.1 mm 3 mps 570 mmHg 50%
    16:00 +16°C° 0.1 mm 3 mps 569 mmHg 56%
    17:00 +14°C° 0.1 mm 3 mps 569 mmHg 61%
    18:00 +13°C° 0.1 mm 3 mps 569 mmHg 67%
    19:00 +12°C° 0.1 mm 3 mps 569 mmHg 73%
    20:00 +12°C° 0.1 mm 2 mps 569 mmHg 79%
    21:00 +12°C° 0 mm 2 mps 569 mmHg 80%
    22:00 +10°C° 0 mm 2 mps 569 mmHg 82%
    23:00 +10°C° 0 mm 2 mps 569 mmHg 83%

    24 January, Wednesday

    Time Temperature Precipitation Wind Pressure Humidity
    00:00 +9°C° 0 mm 2 mps 569 mmHg 85%
    01:00 +9°C° 0 mm 2 mps 568 mmHg 86%
    02:00 +8°C° 0 mm 2 mps 568 mmHg 88%
    03:00 +8°C° 0 mm 2 mps 567 mmHg 89%
    04:00 +8°C° 0 mm 2 mps 567 mmHg 90%
    05:00 +7°C° 0 mm 2 mps 567 mmHg 91%
    06:00 +8°C° 0 mm 2 mps 568 mmHg 86%
    07:00 +9°C° 0 mm 2 mps 569 mmHg 81%
    08:00 +10°C° 0 mm 2 mps 570 mmHg 76%
    09:00 +12°C° 0 mm 3 mps 571 mmHg 68%
    10:00 +14°C° 0 mm 3 mps 571 mmHg 60%
    11:00 +17°C° 0 mm 3 mps 572 mmHg 52%
    12:00 +17°C° 0.1 mm 3 mps 571 mmHg 54%
    13:00 +15°C° 0.1 mm 4 mps 570 mmHg 55%
    14:00 +15°C° 0.1 mm 4 mps 570 mmHg 57%
    15:00 +14°C° 0.3 mm 4 mps 569 mmHg 62%
    16:00 +13°C° 0.3 mm 4 mps 569 mmHg 67%
    17:00 +12°C° 0.3 mm 4 mps 569 mmHg 72%
    18:00 +11°C° 0.2 mm 4 mps 569 mmHg 75%
    19:00 +10°C° 0.2 mm 4 mps 569 mmHg 78%
    20:00 +10°C° 0.2 mm 4 mps 569 mmHg 81%
    21:00 +8°C° 0.3 mm 4 mps 569 mmHg 82%
    22:00 +8°C° 0.3 mm 4 mps 569 mmHg 84%
    23:00 +8°C° 0.3 mm 4 mps 569 mmHg 85%

    25 January, Thursday

    Time Temperature Precipitation Wind Pressure Humidity
    00:00 +8°C° 0.3 mm 4 mps 569 mmHg 85%
    01:00 +8°C° 0.3 mm 4 mps 569 mmHg 85%
    02:00 +8°C° 0.3 mm 4 mps 568 mmHg 85%
    03:00 +7°C° 0.2 mm 4 mps 568 mmHg 87%
    04:00 +8°C° 0.2 mm 3 mps 568 mmHg 88%
    05:00 +8°C° 0.2 mm 3 mps 568 mmHg 89%
    06:00 +8°C° 0 mm 3 mps 569 mmHg 87%
    07:00 +9°C° 0 mm 3 mps 569 mmHg 85%
    08:00 +9°C° 0 mm 3 mps 570 mmHg 82%
    09:00 +10°C° 0.1 mm 4 mps 570 mmHg 78%
    10:00 +11°C° 0.1 mm 4 mps 570 mmHg 74%
    11:00 +12°C° 0.1 mm 4 mps 570 mmHg 70%
    12:00 +12°C° 0 mm 4 mps 570 mmHg 66%
    13:00 +13°C° 0 mm 3 mps 570 mmHg 63%
    14:00 +14°C° 0 mm 3 mps 569 mmHg 59%
    15:00 +13°C° 0 mm 3 mps 569 mmHg 62%
    16:00 +12°C° 0 mm 3 mps 569 mmHg 65%
    17:00 +12°C° 0 mm 3 mps 569 mmHg 68%
    18:00 +11°C° 0 mm 3 mps 569 mmHg 73%
    19:00 +10°C° 0 mm 3 mps 569 mmHg 78%
    20:00 +9°C° 0 mm 2 mps 569 mmHg 83%
    21:00 +9°C° 0 mm 2 mps 568 mmHg 84%
    22:00 +8°C° 0 mm 2 mps 568 mmHg 85%
    23:00 +8°C° 0 mm 2 mps 568 mmHg 86%

    26 January, Friday

    Time Temperature Precipitation Wind Pressure Humidity
    00:00 +8°C° 0 mm 2 mps 567 mmHg 87%
    01:00 +8°C° 0 mm 1 mps 567 mmHg 88%
    02:00 +8°C° 0 mm 1 mps 566 mmHg 89%
    03:00 +8°C° 0 mm 1 mps 566 mmHg 89%
    04:00 +7°C° 0 mm 1 mps 566 mmHg 88%
    05:00 +7°C° 0 mm 1 mps 566 mmHg 88%
    06:00 +9°C° 0 mm 1 mps 567 mmHg 81%
    07:00 +10°C° 0 mm 1 mps 568 mmHg 73%
    08:00 +12°C° 0 mm 1 mps 569 mmHg 66%
    09:00 +14°C° 0 mm 1 mps 569 mmHg 58%
    10:00 +16°C° 0 mm 1 mps 570 mmHg 51%
    11:00 +19°C° 0 mm 1 mps 570 mmHg 43%
    12:00 +19°C° 0.1 mm 1 mps 570 mmHg 42%
    13:00 +19°C° 0.1 mm 1 mps 569 mmHg 42%
    14:00 +19°C° 0.1 mm 2 mps 569 mmHg 41%
    15:00 +18°C° 0.4 mm 2 mps 569 mmHg 46%
    16:00 +17°C° 0.4 mm 2 mps 568 mmHg 52%
    17:00 +16°C° 0.4 mm 2 mps 568 mmHg 57%
    18:00 +15°C° 0.3 mm 1 mps 568 mmHg 62%
    19:00 +14°C° 0.3 mm 1 mps 568 mmHg 68%
    20:00 +13°C° 0.3 mm 1 mps 568 mmHg 74%
    21:00 +12°C° 0.1 mm 1 mps 567 mmHg 75%
    22:00 +12°C° 0.1 mm 1 mps 567 mmHg 77%
    23:00 +11°C° 0.1 mm 1 mps 567 mmHg 78%
    Show more